• In Austria
  • List of Countries
  • For 7 days
  • Water Temperature
  • Satellite Maps
  • Weather Map
  • News
  • Weather Widgets
  • user-avatar
    Login

    Hourly Weather Taşköprü

    Today, 23 October, Tuesday

    Time Temperature Precipitation Wind Pressure Humidity
    00:00 +11°C° 0 mm 0 mps 705 mmHg 87%
    01:00 +11°C° 0 mm 0 mps 705 mmHg 87%
    02:00 +11°C° 0 mm 0 mps 705 mmHg 90%
    03:00 +11°C° 0 mm 0 mps 705 mmHg 90%
    04:00 +11°C° 0 mm 0 mps 705 mmHg 90%
    05:00 +11°C° 0 mm 0 mps 705 mmHg 90%
    06:00 +12°C° 0 mm 0 mps 705 mmHg 84%
    07:00 +13°C° 0 mm 0 mps 705 mmHg 79%
    08:00 +14°C° 0 mm 0 mps 705 mmHg 74%
    09:00 +18°C° 0 mm 1 mps 705 mmHg 67%
    10:00 +20°C° 0 mm 1 mps 705 mmHg 59%
    11:00 +21°C° 0 mm 1 mps 705 mmHg 52%
    12:00 +21°C° 0.1 mm 1 mps 705 mmHg 52%
    13:00 +21°C° 0.1 mm 1 mps 704 mmHg 52%
    14:00 +20°C° 0.1 mm 2 mps 704 mmHg 52%
    15:00 +20°C° 0.1 mm 1 mps 703 mmHg 60%
    16:00 +18°C° 0.1 mm 1 mps 703 mmHg 68%
    17:00 +16°C° 0.1 mm 1 mps 702 mmHg 76%
    18:00 +15°C° 0 mm 1 mps 702 mmHg 79%
    19:00 +15°C° 0 mm 1 mps 702 mmHg 83%
    20:00 +14°C° 0 mm 1 mps 702 mmHg 87%
    21:00 +14°C° 0 mm 1 mps 702 mmHg 87%
    22:00 +13°C° 0 mm 1 mps 701 mmHg 88%
    23:00 +12°C° 0 mm 0 mps 701 mmHg 88%

    Tomorrow, 24 October, Wednesday

    Time Temperature Precipitation Wind Pressure Humidity
    00:00 +13°C° 0 mm 1 mps 700 mmHg 88%
    01:00 +13°C° 0 mm 1 mps 700 mmHg 87%
    02:00 +13°C° 0 mm 1 mps 699 mmHg 86%
    03:00 +13°C° 0 mm 1 mps 699 mmHg 85%
    04:00 +13°C° 0 mm 1 mps 699 mmHg 83%
    05:00 +13°C° 0 mm 1 mps 698 mmHg 82%
    06:00 +14°C° 0 mm 1 mps 698 mmHg 77%
    07:00 +15°C° 0 mm 1 mps 698 mmHg 73%
    08:00 +16°C° 0 mm 1 mps 698 mmHg 68%
    09:00 +17°C° 0.1 mm 2 mps 697 mmHg 63%
    10:00 +18°C° 0.1 mm 2 mps 697 mmHg 58%
    11:00 +19°C° 0.1 mm 3 mps 697 mmHg 53%
    12:00 +19°C° 0.3 mm 3 mps 696 mmHg 56%
    13:00 +18°C° 0.3 mm 3 mps 695 mmHg 59%
    14:00 +18°C° 0.3 mm 3 mps 694 mmHg 62%
    15:00 +17°C° 0.3 mm 3 mps 694 mmHg 67%
    16:00 +16°C° 0.3 mm 3 mps 694 mmHg 71%
    17:00 +14°C° 0.3 mm 3 mps 693 mmHg 76%
    18:00 +14°C° 0.6 mm 3 mps 693 mmHg 78%
    19:00 +13°C° 0.6 mm 3 mps 693 mmHg 81%
    20:00 +13°C° 0.6 mm 3 mps 693 mmHg 83%
    21:00 +13°C° 0.3 mm 3 mps 692 mmHg 82%
    22:00 +12°C° 0.3 mm 3 mps 692 mmHg 81%
    23:00 +12°C° 0.3 mm 3 mps 692 mmHg 80%

    Day after tomorrow, 25 October, Thursday

    Time Temperature Precipitation Wind Pressure Humidity
    00:00 +11°C° 0.3 mm 4 mps 691 mmHg 80%
    01:00 +11°C° 0.3 mm 4 mps 691 mmHg 80%
    02:00 +11°C° 0.3 mm 4 mps 691 mmHg 79%
    03:00 +9°C° 1 mm 5 mps 691 mmHg 79%
    04:00 +9°C° 1 mm 6 mps 692 mmHg 80%
    05:00 +8°C° 1 mm 6 mps 692 mmHg 80%
    06:00 +8°C° 0.4 mm 7 mps 693 mmHg 77%
    07:00 +6°C° 0.4 mm 7 mps 694 mmHg 74%
    08:00 +5°C° 0.4 mm 7 mps 695 mmHg 71%
    09:00 +5°C° 0.2 mm 7 mps 696 mmHg 68%
    10:00 +6°C° 0.2 mm 7 mps 696 mmHg 64%
    11:00 +6°C° 0.2 mm 7 mps 697 mmHg 61%
    12:00 +6°C° 0.1 mm 7 mps 697 mmHg 60%
    13:00 +6°C° 0.1 mm 7 mps 697 mmHg 58%
    14:00 +6°C° 0.1 mm 7 mps 698 mmHg 56%
    15:00 +5°C° 0.1 mm 6 mps 698 mmHg 60%
    16:00 +4°C° 0.1 mm 6 mps 698 mmHg 64%
    17:00 +5°C° 0.1 mm 5 mps 699 mmHg 68%
    18:00 +3°C° 0 mm 5 mps 699 mmHg 70%
    19:00 +3°C° 0 mm 5 mps 700 mmHg 73%
    20:00 +4°C° 0 mm 4 mps 700 mmHg 75%
    21:00 +4°C° 0 mm 4 mps 701 mmHg 75%
    22:00 +4°C° 0 mm 4 mps 701 mmHg 75%
    23:00 +3°C° 0 mm 4 mps 701 mmHg 74%

    26 October, Friday

    Time Temperature Precipitation Wind Pressure Humidity
    00:00 +3°C° 0 mm 4 mps 701 mmHg 76%
    01:00 +3°C° 0 mm 4 mps 701 mmHg 77%
    02:00 +1°C° 0 mm 4 mps 701 mmHg 78%
    03:00 +1°C° 0 mm 4 mps 702 mmHg 77%
    04:00 +1°C° 0 mm 4 mps 702 mmHg 77%
    05:00 +1°C° 0 mm 4 mps 702 mmHg 76%
    06:00 +3°C° 0 mm 4 mps 702 mmHg 70%
    07:00 +4°C° 0 mm 4 mps 703 mmHg 65%
    08:00 +5°C° 0 mm 5 mps 703 mmHg 59%
    09:00 +7°C° 0 mm 5 mps 703 mmHg 55%
    10:00 +9°C° 0 mm 5 mps 703 mmHg 51%
    11:00 +10°C° 0 mm 5 mps 703 mmHg 47%
    12:00 +11°C° 0 mm 6 mps 703 mmHg 47%
    13:00 +11°C° 0 mm 6 mps 704 mmHg 48%
    14:00 +13°C° 0 mm 6 mps 704 mmHg 49%
    15:00 +10°C° 0 mm 5 mps 704 mmHg 55%
    16:00 +9°C° 0 mm 5 mps 704 mmHg 60%
    17:00 +8°C° 0 mm 4 mps 705 mmHg 66%
    18:00 +7°C° 0 mm 4 mps 705 mmHg 69%
    19:00 +8°C° 0 mm 3 mps 706 mmHg 72%
    20:00 +7°C° 0 mm 3 mps 706 mmHg 75%
    21:00 +7°C° 0 mm 3 mps 707 mmHg 76%
    22:00 +7°C° 0 mm 2 mps 707 mmHg 77%
    23:00 +6°C° 0 mm 2 mps 707 mmHg 78%

    27 October, Saturday

    Time Temperature Precipitation Wind Pressure Humidity
    00:00 +6°C° 0 mm 2 mps 707 mmHg 78%
    01:00 +6°C° 0 mm 2 mps 707 mmHg 78%
    02:00 +6°C° 0 mm 2 mps 707 mmHg 78%
    03:00 +6°C° 0 mm 2 mps 707 mmHg 77%
    04:00 +6°C° 0 mm 2 mps 708 mmHg 76%
    05:00 +6°C° 0 mm 2 mps 708 mmHg 75%
    06:00 +7°C° 0 mm 2 mps 708 mmHg 70%
    07:00 +8°C° 0 mm 2 mps 708 mmHg 65%
    08:00 +10°C° 0 mm 2 mps 708 mmHg 59%
    09:00 +13°C° 0 mm 2 mps 708 mmHg 53%
    10:00 +15°C° 0 mm 2 mps 708 mmHg 46%
    11:00 +17°C° 0 mm 2 mps 708 mmHg 39%
    12:00 +17°C° 0 mm 2 mps 708 mmHg 38%
    13:00 +18°C° 0 mm 3 mps 708 mmHg 36%
    14:00 +18°C° 0 mm 3 mps 708 mmHg 34%
    15:00 +17°C° 0 mm 2 mps 707 mmHg 39%
    16:00 +15°C° 0 mm 2 mps 707 mmHg 44%
    17:00 +13°C° 0 mm 2 mps 707 mmHg 49%
    18:00 +13°C° 0 mm 2 mps 707 mmHg 50%
    19:00 +12°C° 0 mm 2 mps 707 mmHg 52%
    20:00 +10°C° 0 mm 2 mps 707 mmHg 53%
    21:00 +10°C° 0 mm 2 mps 707 mmHg 53%
    22:00 +10°C° 0 mm 3 mps 707 mmHg 53%
    23:00 +9°C° 0 mm 3 mps 707 mmHg 53%

    28 October, Sunday

    Time Temperature Precipitation Wind Pressure Humidity
    00:00 +9°C° 0 mm 3 mps 707 mmHg 53%
    01:00 +9°C° 0 mm 3 mps 707 mmHg 53%
    02:00 +9°C° 0 mm 3 mps 707 mmHg 52%
    03:00 +9°C° 0 mm 3 mps 707 mmHg 52%
    04:00 +9°C° 0 mm 3 mps 707 mmHg 51%
    05:00 +9°C° 0 mm 3 mps 707 mmHg 50%
    06:00 +10°C° 0 mm 2 mps 707 mmHg 47%
    07:00 +13°C° 0 mm 2 mps 707 mmHg 45%
    08:00 +14°C° 0 mm 2 mps 708 mmHg 42%
    09:00 +16°C° 0 mm 2 mps 708 mmHg 37%
    10:00 +18°C° 0 mm 2 mps 708 mmHg 32%
    11:00 +22°C° 0 mm 1 mps 708 mmHg 27%
    12:00 +21°C° 0 mm 2 mps 708 mmHg 26%
    13:00 +23°C° 0 mm 2 mps 708 mmHg 25%
    14:00 +23°C° 0 mm 2 mps 707 mmHg 25%
    15:00 +20°C° 0 mm 2 mps 707 mmHg 29%
    16:00 +18°C° 0 mm 2 mps 707 mmHg 33%
    17:00 +16°C° 0 mm 2 mps 706 mmHg 38%
    18:00 +15°C° 0 mm 2 mps 706 mmHg 39%
    19:00 +14°C° 0 mm 2 mps 706 mmHg 39%
    20:00 +14°C° 0 mm 2 mps 706 mmHg 40%
    21:00 +13°C° 0 mm 2 mps 706 mmHg 40%
    22:00 +13°C° 0 mm 2 mps 706 mmHg 40%
    23:00 +13°C° 0 mm 2 mps 706 mmHg 40%

    29 October, Monday

    Time Temperature Precipitation Wind Pressure Humidity
    00:00 +12°C° 0 mm 2 mps 705 mmHg 39%
    01:00 +12°C° 0 mm 2 mps 705 mmHg 37%
    02:00 +12°C° 0 mm 2 mps 705 mmHg 36%
    03:00 +12°C° 0 mm 2 mps 705 mmHg 35%
    04:00 +12°C° 0 mm 2 mps 704 mmHg 34%
    05:00 +12°C° 0 mm 2 mps 704 mmHg 33%
    06:00 +13°C° 0 mm 2 mps 704 mmHg 33%
    07:00 +14°C° 0 mm 2 mps 705 mmHg 32%
    08:00 +16°C° 0 mm 2 mps 705 mmHg 32%
    09:00 +18°C° 0 mm 2 mps 705 mmHg 28%
    10:00 +21°C° 0 mm 2 mps 705 mmHg 24%
    11:00 +24°C° 0 mm 2 mps 705 mmHg 21%
    12:00 +25°C° 0 mm 2 mps 705 mmHg 20%
    13:00 +25°C° 0 mm 2 mps 704 mmHg 20%
    14:00 +25°C° 0 mm 2 mps 704 mmHg 19%
    15:00 +23°C° 0 mm 2 mps 703 mmHg 23%
    16:00 +20°C° 0 mm 2 mps 703 mmHg 27%
    17:00 +17°C° 0 mm 2 mps 703 mmHg 31%
    18:00 +16°C° 0 mm 2 mps 703 mmHg 32%
    19:00 +16°C° 0 mm 2 mps 703 mmHg 32%
    20:00 +15°C° 0 mm 2 mps 703 mmHg 33%
    21:00 +14°C° 0 mm 2 mps 703 mmHg 33%
    22:00 +13°C° 0 mm 3 mps 702 mmHg 33%
    23:00 +13°C° 0 mm 3 mps 702 mmHg 33%
    Show more